Weather History for Drummond Island, MI

Change the Weather History Date:

Sunday, October 20, 2013

  Actual Average (KCIU) Record (KCIU)
Temperature  
Mean Temperature 40 °F -  
Max Temperature 51 °F 50 °F 66 °F (1979)
Min Temperature 30 °F 32 °F 21 °F (1983)
Degree Days  
Heating Degree Days 24    
Moisture  
Dew Point 37 °F    
Average Humidity 85    
Maximum Humidity 100    
Minimum Humidity 56    
Precipitation  
Precipitation 0.00 in - - ()
Sea Level Pressure  
Sea Level Pressure 29.77 in    
Wind  
Wind Speed 3 mph (SSE)    
Max Wind Speed 12 mph    
Max Gust Speed 21 mph    
Visibility 10 miles    
Events Rain    
Averages and records for this station are not official NWS values.
T = Trace of Precipitation, MM = Missing Value Source: NWS Daily Summary

Daily Weather History Graph

Daily Weather History Graph

Search for Another Location

Airport:

Trip Planner

Search our weather history database for the weather conditions in past years. The results will help you decide how hot, cold, wet, or windy it might be!

Date:

Astronomy

Oct. 20, 2013 Rise Set
Actual Time 7:59 AM EDT 6:39 PM EDT
Civil Twilight 7:28 AM EDT 7:10 PM EDT
Nautical Twilight 6:53 AM EDT 7:44 PM EDT
Astronomical Twilight 6:19 AM EDT 8:19 PM EDT
Moon 7:41 PM EDT (10/20) 9:41 AM EDT (10/20)
Length of Visible Light 11h 41m
Length of Day
10h 40m
Full, 97% of the Moon is Illuminated
Oct 20
Full
Oct 26
Last Quarter
Nov 3
New
Nov 10
First Quarter
Nov 17
Full

Hourly Weather History & Observations

Time (EDT) Temp. Windchill Dew Point Humidity Pressure Visibility Wind Dir Wind Speed Gust Speed Precip Events Conditions
12:16 AM 37.4 °F 33.8 °F 34.7 °F 90% 29.70 in 10.0 mi WSW 4.6 mph - N/A   Scattered Clouds
12:35 AM 41.9 °F 37.5 °F 37.4 °F 84% 29.70 in 10.0 mi WSW 6.9 mph - N/A   Scattered Clouds
12:55 AM 41.4 °F 37.6 °F 37.6 °F 86% 29.70 in 10.0 mi SW 5.8 mph - N/A   Scattered Clouds
1:15 AM 41.2 °F - 37.6 °F 87% 29.70 in 10.0 mi Calm Calm - N/A   Clear
1:35 AM 40.8 °F - 37.2 °F 87% 29.69 in 10.0 mi Calm Calm - N/A   Scattered Clouds
1:56 AM 38.7 °F - 36.5 °F 92% 29.70 in 10.0 mi Calm Calm - N/A   Mostly Cloudy
2:15 AM 38.3 °F - 36.5 °F 93% 29.70 in 10.0 mi Calm Calm - N/A   Mostly Cloudy
2:35 AM 40.1 °F - 37.9 °F 92% 29.70 in 10.0 mi Calm Calm - N/A   Scattered Clouds
2:56 AM 38.3 °F - 35.8 °F 91% 29.70 in 10.0 mi Calm Calm - N/A   Clear
3:15 AM 35.4 °F - 34.0 °F 94% 29.71 in 10.0 mi Calm Calm - N/A   Clear
3:35 AM 34.7 °F - 33.8 °F 97% 29.71 in 10.0 mi Calm Calm - N/A   Clear
3:56 AM 34.2 °F - 33.4 °F 97% 29.71 in 10.0 mi Calm Calm - N/A   Clear
4:15 AM 32.9 °F - 32.4 °F 98% 29.71 in 10.0 mi Calm Calm - N/A   Clear
4:36 AM 32.4 °F - 32.0 °F 99% 29.71 in 10.0 mi Calm Calm - N/A   Clear
4:56 AM 32.0 °F - 31.8 °F 99% 29.72 in 10.0 mi Calm Calm - N/A   Clear
5:15 AM 32.0 °F - 32.0 °F 100% 29.72 in 10.0 mi Calm Calm - N/A   Clear
5:36 AM 32.2 °F - 32.0 °F 99% 29.72 in 10.0 mi Calm Calm - N/A   Clear
5:56 AM 32.0 °F - 31.8 °F 99% 29.72 in 10.0 mi Calm Calm - N/A   Clear
6:15 AM 31.8 °F - 31.8 °F 100% 29.73 in 10.0 mi Calm Calm - N/A   Scattered Clouds
6:36 AM 31.6 °F - 31.5 °F 99% 29.73 in 10.0 mi Calm Calm - N/A   Clear
6:55 AM 30.9 °F - 30.7 °F 99% 29.73 in 10.0 mi Calm Calm - N/A   Clear
7:15 AM 30.9 °F - 30.9 °F 100% 29.74 in 10.0 mi Calm Calm - N/A   Scattered Clouds
7:36 AM 31.3 °F - 31.1 °F 99% 29.74 in 10.0 mi Calm Calm - N/A   Scattered Clouds
7:55 AM 31.1 °F - 31.1 °F 100% 29.75 in 10.0 mi Calm Calm - N/A   Clear
8:15 AM 31.1 °F - 31.1 °F 100% 29.75 in 10.0 mi Calm Calm - N/A   Clear
8:36 AM 31.1 °F - 31.1 °F 100% 29.76 in 10.0 mi Calm Calm - N/A   Clear
8:55 AM 32.0 °F - 32.0 °F 100% 29.77 in 10.0 mi Calm Calm - N/A   Clear
9:16 AM 34.5 °F - 34.3 °F 99% 29.78 in 10.0 mi Calm Calm - N/A   Scattered Clouds
9:36 AM 38.3 °F - 37.8 °F 98% 29.78 in 10.0 mi Calm Calm - N/A   Clear
9:55 AM 41.9 °F 40.0 °F 40.1 °F 93% 29.78 in 10.0 mi East 3.5 mph - N/A   Mostly Cloudy
10:16 AM 43.9 °F 41.3 °F 41.2 °F 90% 29.79 in 10.0 mi ESE 4.6 mph - N/A   Mostly Cloudy
10:35 AM 45.5 °F 42.5 °F 42.1 °F 88% 29.79 in 10.0 mi East 5.8 mph - N/A   Mostly Cloudy
10:56 AM 47.1 °F - 41.9 °F 82% 29.80 in 10.0 mi SE 6.9 mph - N/A   Scattered Clouds
11:16 AM 47.3 °F - 40.5 °F 77% 29.80 in 10.0 mi East 5.8 mph - N/A   Scattered Clouds
11:35 AM 47.1 °F - 38.7 °F 72% 29.80 in 10.0 mi SSE 5.8 mph - N/A   Mostly Cloudy
11:56 AM 45.5 °F 44.2 °F 41.2 °F 85% 29.81 in 10.0 mi SE 3.5 mph - N/A Rain Light Rain
12:15 PM 46.6 °F - 41.7 °F 83% 29.81 in 10.0 mi SE 4.6 mph - N/A   Overcast
12:35 PM 46.9 °F - 41.5 °F 81% 29.81 in 10.0 mi ESE 6.9 mph - N/A   Mostly Cloudy
12:56 PM 49.5 °F - 42.1 °F 76% 29.81 in 10.0 mi SSE 9.2 mph - N/A   Mostly Cloudy
1:15 PM 50.7 °F - 37.9 °F 62% 29.81 in 10.0 mi South 9.2 mph - N/A   Scattered Clouds
1:35 PM 51.1 °F - 37.9 °F 61% 29.81 in 10.0 mi SSW 5.8 mph - N/A   Scattered Clouds
1:56 PM 51.4 °F - 36.3 °F 56% 29.80 in 10.0 mi South 9.2 mph - N/A   Scattered Clouds
2:15 PM 51.4 °F - 37.8 °F 60% 29.80 in 10.0 mi SSW 9.2 mph - N/A   Scattered Clouds
2:35 PM 49.8 °F - 39.4 °F 67% 29.80 in 10.0 mi SW 4.6 mph - N/A   Scattered Clouds
2:56 PM 50.4 °F - 37.4 °F 61% 29.79 in 10.0 mi SSW 5.8 mph - N/A   Mostly Cloudy
3:15 PM 51.1 °F - 36.9 °F 58% 29.80 in 10.0 mi South 6.9 mph - N/A   Scattered Clouds
3:36 PM 50.5 °F - 37.4 °F 61% 29.80 in 10.0 mi SW 5.8 mph - N/A   Scattered Clouds
3:56 PM 50.4 °F - 37.6 °F 62% 29.80 in 10.0 mi SSW 9.2 mph - N/A   Scattered Clouds
4:15 PM 49.5 °F - 38.1 °F 65% 29.80 in 10.0 mi SSE 4.6 mph - N/A   Scattered Clouds
4:36 PM 45.9 °F - 40.8 °F 83% 29.81 in 10.0 mi Calm Calm - N/A Rain Light Rain
4:55 PM 47.1 °F - 41.0 °F 79% 29.80 in 10.0 mi Calm Calm - N/A   Overcast
5:15 PM 48.4 °F - 39.6 °F 72% 29.80 in 10.0 mi Calm Calm - N/A   Mostly Cloudy
5:36 PM 48.2 °F - 39.4 °F 72% 29.80 in 10.0 mi Calm Calm - N/A Rain Rain
5:55 PM 45.1 °F 43.7 °F 39.2 °F 80% 29.81 in 0.5 mi South 3.5 mph - N/A   Overcast
6:15 PM 44.2 °F - 41.0 °F 88% 29.80 in 1.2 mi Calm Calm - N/A Rain Heavy Rain
6:36 PM 44.4 °F - 41.5 °F 90% 29.80 in 10.0 mi Calm Calm - N/A Rain Light Rain
6:55 PM 44.1 °F - 42.3 °F 93% 29.80 in 10.0 mi Calm Calm - N/A   Overcast
7:15 PM 43.2 °F - 42.1 °F 96% 29.80 in 10.0 mi Calm Calm - N/A   Mostly Cloudy
7:36 PM 43.2 °F - 42.1 °F 96% 29.80 in 10.0 mi Calm Calm - N/A   Scattered Clouds
7:55 PM 44.4 °F - 42.6 °F 93% 29.79 in 10.0 mi Calm Calm - N/A   Clear
8:16 PM 43.5 °F 41.9 °F 42.3 °F 95% 29.79 in 10.0 mi SE 3.5 mph - N/A   Clear
8:36 PM 45.5 °F - 42.1 °F 88% 29.79 in 10.0 mi Calm Calm - N/A   Scattered Clouds
8:55 PM 43.3 °F - 41.4 °F 93% 29.78 in 10.0 mi Calm Calm - N/A   Overcast
9:16 PM 43.2 °F - 42.1 °F 96% 29.78 in 10.0 mi Calm Calm - N/A   Overcast
9:35 PM 45.7 °F 43.4 °F 39.4 °F 79% 29.78 in 10.0 mi SSE 4.6 mph - N/A   Overcast
9:55 PM 46.9 °F - 38.1 °F 71% 29.78 in 10.0 mi SSE 3.5 mph - N/A   Overcast
10:15 PM 47.7 °F - 37.0 °F 67% 29.78 in 10.0 mi SSE 11.5 mph 16.1 mph N/A   Overcast
10:35 PM 47.7 °F - 36.5 °F 65% 29.78 in 10.0 mi South 11.5 mph 20.7 mph N/A Rain Rain
10:56 PM 45.7 °F 42.0 °F 38.8 °F 77% 29.78 in 10.0 mi South 6.9 mph 16.1 mph N/A Rain Light Rain
11:15 PM 45.0 °F 40.6 °F 39.7 °F 82% 29.77 in 10.0 mi South 8.1 mph - N/A Rain Light Rain
11:35 PM 44.6 °F 41.4 °F 40.6 °F 86% 29.76 in 10.0 mi SSE 5.8 mph - N/A Rain Light Rain
11:56 PM 44.2 °F 41.8 °F 41.9 °F 91% 29.75 in 10.0 mi SSE 4.6 mph - N/A   Drizzle